| time (UTC) | temp C | wind direction | speed KPH | gust KPH | rain 1hr cm | rain 24hr cm | rain mn cm | humidity % | barometer mb |
| 20260507183133 | 17 | 267 | 9.7 | 12.9 | 0.00 | 0.00 | 0.00 | 73 | 1021.4 |
| 20260507182629 | 17 | 195 | 6.4 | 6.4 | 0.00 | 0.00 | 0.00 | 73 | 1021.7 |
| 20260507182126 | 16 | 355 | 4.8 | 4.8 | 0.00 | 0.00 | 0.00 | 73 | 1021.5 |
| 20260507181622 | 17 | 244 | 9.7 | 12.9 | 0.00 | 0.00 | 0.00 | 73 | 1021.6 |
| 20260507181118 | 17 | 229 | 11.3 | 11.3 | 0.00 | 0.00 | 0.00 | 73 | 1021.8 |
| 20260507180615 | 16 | 217 | 4.8 | 11.3 | 0.00 | 0.00 | 0.00 | 73 | 1021.5 |
| 20260507180112 | 17 | 213 | 3.2 | 6.4 | 0.00 | 0.00 | 0.00 | 73 | 1021.5 |
| 20260507175608 | 16 | 202 | 6.4 | 6.4 | 0.00 | 0.00 | 0.00 | 73 | 1021.7 |
| 20260507175106 | 16 | 260 | 6.4 | 11.3 | 0.00 | 0.00 | 0.00 | 73 | 1021.5 |
| 20260507174602 | 16 | 20 | 4.8 | 6.4 | 0.00 | 0.00 | 0.00 | 73 | 1021.7 |
| 20260507174100 | 16 | 20 | 4.8 | 6.4 | 0.00 | 0.00 | 0.00 | 73 | 1021.8 |
| 20260507173557 | 16 | 20 | 4.8 | 6.4 | 0.00 | 0.00 | 0.00 | 73 | 1021.7 |
| 20260507173054 | 16 | 280 | 6.4 | 6.4 | 0.00 | 0.00 | 0.00 | 73 | 1022.2 |
| 20260507172550 | 16 | 280 | 6.4 | 6.4 | 0.00 | 0.00 | 0.00 | 73 | 1022.0 |
| 20260507172047 | 16 | 235 | 4.8 | 8.0 | 0.00 | 0.00 | 0.00 | 73 | 1022.3 |
| 20260507171542 | 16 | 135 | 4.8 | 4.8 | 0.00 | 0.00 | 0.00 | 73 | 1022.4 |
| 20260507171040 | 15 | 267 | 4.8 | 9.7 | 0.00 | 0.00 | 0.00 | 73 | 1022.4 |
| 20260507170536 | 16 | 261 | 3.2 | 9.7 | 0.00 | 0.00 | 0.00 | 73 | 1022.7 |
| 20260507170034 | 16 | 255 | 9.7 | 17.7 | 0.00 | 0.00 | 0.00 | 73 | 1022.6 |
| 20260507165529 | 15 | 278 | 12.9 | 17.7 | 0.00 | 0.00 | 0.00 | 73 | 1022.8 |
| 20260507165026 | 15 | 277 | 9.7 | 20.9 | 0.00 | 0.00 | 0.00 | 73 | 1023.0 |
| 20260507164522 | 16 | 275 | 8.0 | 14.5 | 0.00 | 0.00 | 0.00 | 73 | 1023.0 |
| 20260507164019 | 16 | 267 | 6.4 | 11.3 | 0.00 | 0.00 | 0.00 | 73 | 1023.1 |
| 20260507163516 | 16 | 98 | 0.0 | 4.8 | 0.00 | 0.00 | 0.00 | 73 | 1022.9 |
| 20260507163015 | 15 | 49 | 4.8 | 9.7 | 0.00 | 0.00 | 0.00 | 73 | 1023.0 |
| 20260507162509 | 15 | 96 | 11.3 | 11.3 | 0.00 | 0.00 | 0.00 | 73 | 1023.0 |
| 20260507162006 | 16 | 90 | 0.0 | 3.2 | 0.00 | 0.00 | 0.00 | 73 | 1023.0 |
| 20260507161503 | 15 | 0 | 4.8 | 8.0 | 0.00 | 0.00 | 0.00 | 73 | 1023.0 |
| 20260507160959 | 15 | 78 | 6.4 | 8.0 | 0.00 | 0.00 | 0.00 | 73 | 1023.3 |
| 20260507160455 | 15 | 315 | 0.0 | 4.8 | 0.00 | 0.00 | 0.00 | 73 | 1022.9 |
| 20260507155951 | 16 | 60 | 4.8 | 8.0 | 0.00 | 0.00 | 0.00 | 73 | 1022.9 |
| 20260507155447 | 16 | 254 | 3.2 | 4.8 | 0.00 | 0.00 | 0.00 | 73 | 1022.8 |
| 20260507154944 | 16 | 313 | 4.8 | 4.8 | 0.00 | 0.00 | 0.00 | 73 | 1022.9 |
| 20260507154441 | 16 | 172 | 0.0 | 6.4 | 0.00 | 0.00 | 0.00 | 73 | 1022.8 |
| 20260507153938 | 15 | 192 | 3.2 | 8.0 | 0.00 | 0.00 | 0.00 | 73 | 1023.2 |
| 20260507153435 | 15 | 201 | 4.8 | 6.4 | 0.00 | 0.00 | 0.00 | 73 | 1023.1 |
| 20260507152931 | 15 | 74 | 0.0 | 6.4 | 0.00 | 0.00 | 0.00 | 73 | 1022.9 |
| 20260507152427 | 14 | 0 | 0.0 | 4.8 | 0.00 | 0.00 | 0.00 | 72 | 1023.2 |
| 20260507151923 | 16 | 4 | 6.4 | 6.4 | 0.00 | 0.00 | 0.00 | 73 | 1023.3 |
| 20260507151420 | 15 | 203 | 0.0 | 1.6 | 0.00 | 0.00 | 0.00 | 73 | 1023.2 |
| 20260507150917 | 13 | 90 | 0.0 | 4.8 | 0.00 | 0.00 | 0.00 | 72 | 1023.3 |
| 20260507150414 | 13 | 284 | 8.0 | 8.0 | 0.00 | 0.00 | 0.00 | 72 | 1023.2 |
| 20260507145910 | 15 | 114 | 3.2 | 6.4 | 0.00 | 0.00 | 0.00 | 72 | 1023.3 |
| 20260507145406 | 15 | 225 | 4.8 | 6.4 | 0.00 | 0.00 | 0.00 | 73 | 1023.4 |
| 20260507144903 | 14 | 98 | 8.0 | 11.3 | 0.00 | 0.00 | 0.00 | 72 | 1023.4 |
| 20260507144400 | 14 | 134 | 6.4 | 8.0 | 0.00 | 0.00 | 0.00 | 72 | 1023.3 |
| 20260507143857 | 13 | 222 | 4.8 | 8.0 | 0.00 | 0.00 | 0.00 | 72 | 1023.3 |
| 20260507143354 | 14 | 192 | 6.4 | 6.4 | 0.00 | 0.00 | 0.00 | 72 | 1023.5 |
| 20260507142851 | 14 | 191 | 4.8 | 4.8 | 0.00 | 0.00 | 0.00 | 72 | 1023.3 |
| 20260507142347 | 13 | 173 | 0.0 | 3.2 | 0.00 | 0.00 | 0.00 | 72 | 1023.2 |
| 20260507141844 | 12 | 116 | 4.8 | 11.3 | 0.00 | 0.00 | 0.00 | 72 | 1023.5 |
| 20260507141340 | 12 | 127 | 9.7 | 11.3 | 0.00 | 0.00 | 0.00 | 72 | 1023.6 |
| 20260507140837 | 13 | 154 | 1.6 | 4.8 | 0.00 | 0.00 | 0.00 | 72 | 1023.3 |
| 20260507140334 | 13 | 103 | 0.0 | 4.8 | 0.00 | 0.00 | 0.00 | 72 | 1023.2 |
| 20260507135832 | 13 | 114 | 4.8 | 11.3 | 0.00 | 0.00 | 0.00 | 72 | 1023.3 |
| 20260507135328 | 13 | 106 | 4.8 | 4.8 | 0.00 | 0.00 | 0.00 | 72 | 1023.4 |
| 20260507134826 | 12 | 109 | 6.4 | 11.3 | 0.00 | 0.00 | 0.00 | 72 | 1023.4 |
| 20260507134322 | 12 | 134 | 8.0 | 9.7 | 0.00 | 0.00 | 0.00 | 72 | 1023.4 |
| 20260507133817 | 12 | 78 | 3.2 | 4.8 | 0.00 | 0.00 | 0.00 | 72 | 1023.5 |
| 20260507133313 | 13 | 154 | 4.8 | 4.8 | 0.00 | 0.00 | 0.00 | 72 | 1023.4 |
| 20260507132812 | 12 | 187 | 3.2 | 4.8 | 0.00 | 0.00 | 0.00 | 72 | 1023.6 |
| 20260507132308 | 11 | 159 | 3.2 | 9.7 | 0.00 | 0.00 | 0.00 | 72 | 1023.5 |
| 20260507131805 | 11 | 103 | 4.8 | 4.8 | 0.00 | 0.00 | 0.00 | 72 | 1023.4 |
| 20260507131302 | 10 | 6 | 0.0 | 1.6 | 0.00 | 0.00 | 0.00 | 72 | 1023.1 |
| 20260507130759 | 10 | 6 | 0.0 | 1.6 | 0.00 | 0.00 | 0.00 | 72 | 1023.2 |
| 20260507130256 | 10 | 6 | 0.0 | 1.6 | 0.00 | 0.00 | 0.00 | 72 | 1023.2 |
| 20260507125755 | 10 | 6 | 0.0 | 1.6 | 0.00 | 0.00 | 0.00 | 72 | 1023.2 |
| 20260507125252 | 10 | 6 | 0.0 | 1.6 | 0.00 | 0.00 | 0.00 | 72 | 1023.4 |
| 20260507124749 | 8 | 180 | 0.0 | 1.6 | 0.00 | 0.00 | 0.00 | 71 | 1023.3 |
| 20260507124245 | 8 | 180 | 0.0 | 1.6 | 0.00 | 0.00 | 0.00 | 71 | 1023.0 |
| 20260507123744 | 8 | 180 | 0.0 | 1.6 | 0.00 | 0.00 | 0.00 | 71 | 1023.1 |
| 20260507123241 | 8 | 180 | 0.0 | 1.6 | 0.00 | 0.00 | 0.00 | 71 | 1023.0 |
| 20260507122736 | 8 | 190 | 3.2 | 3.2 | 0.00 | 0.00 | 0.00 | 71 | 1023.4 |
| 20260507122232 | 8 | 0 | 0.0 | 0.0 | 0.00 | 0.00 | 0.00 | 71 | 1023.3 |
| 20260507121728 | 7 | 14 | 0.0 | 3.2 | 0.00 | 0.00 | 0.00 | 71 | 1023.2 |
| 20260507121224 | 6 | 90 | 0.0 | 0.0 | 0.00 | 0.00 | 0.00 | 71 | 1022.8 |
| 20260507120720 | -17 | 0.0 | 0.0 | 0.00 | 0.00 | 0.00 | 1022.8 | ||
| 20260507120218 | -17 | 0.0 | 0.0 | 0.00 | 0.00 | 0.00 | 1022.8 | ||
| 20260507115714 | -17 | 0.0 | 0.0 | 0.00 | 0.00 | 0.00 | 1022.7 | ||
| 20260507115210 | -17 | 0.0 | 0.0 | 0.00 | 0.00 | 0.00 | 1022.8 | ||
| 20260507114705 | -17 | 0.0 | 0.0 | 0.00 | 0.00 | 0.00 | 1022.6 | ||
| 20260507114203 | -17 | 0.0 | 0.0 | 0.00 | 0.00 | 0.00 | 1022.4 | ||
| 20260507113700 | -17 | 0.0 | 0.0 | 0.00 | 0.00 | 0.00 | 1022.5 | ||
| 20260507113157 | 6 | 20 | 0.0 | 4.8 | 0.00 | 0.00 | 0.00 | 71 | 1022.7 |
| 20260507112655 | 6 | 20 | 0.0 | 4.8 | 0.00 | 0.00 | 0.00 | 71 | 1022.8 |
| 20260507112151 | 6 | 20 | 0.0 | 4.8 | 0.00 | 0.00 | 0.00 | 71 | 1022.5 |
| 20260507111649 | 6 | 20 | 0.0 | 4.8 | 0.00 | 0.00 | 0.00 | 71 | 1022.5 |
| 20260507111145 | 6 | 20 | 0.0 | 4.8 | 0.00 | 0.00 | 0.00 | 71 | 1022.7 |
| 20260507110641 | 6 | 20 | 0.0 | 4.8 | 0.00 | 0.00 | 0.00 | 71 | 1022.8 |
| 20260507110138 | 6 | 20 | 0.0 | 4.8 | 0.00 | 0.00 | 0.00 | 71 | 1022.4 |
| 20260507105635 | 6 | 20 | 0.0 | 4.8 | 0.00 | 0.00 | 0.00 | 71 | 1022.6 |
| 20260507105131 | 6 | 20 | 0.0 | 4.8 | 0.00 | 0.00 | 0.00 | 71 | 1022.6 |
| 20260507104629 | 6 | 20 | 0.0 | 4.8 | 0.00 | 0.00 | 0.00 | 71 | 1022.5 |
| 20260507104125 | 6 | 20 | 0.0 | 4.8 | 0.00 | 0.00 | 0.00 | 71 | 1022.6 |
| 20260507103621 | 6 | 20 | 0.0 | 4.8 | 0.00 | 0.00 | 0.00 | 71 | 1022.5 |
| 20260507103118 | 6 | 7 | 0.0 | 3.2 | 0.00 | 0.00 | 0.00 | 71 | 1022.5 |
| 20260507102614 | 6 | 23 | 6.4 | 6.4 | 0.00 | 0.00 | 0.00 | 71 | 1022.5 |
| 20260507102111 | 6 | 14 | 0.0 | 3.2 | 0.00 | 0.00 | 0.00 | 71 | 1022.4 |
| 20260507101607 | 6 | 18 | 0.0 | 3.2 | 0.00 | 0.00 | 0.00 | 71 | 1022.6 |
| 20260507101103 | 6 | 18 | 0.0 | 3.2 | 0.00 | 0.00 | 0.00 | 71 | 1022.5 |
| 20260507100600 | 6 | 45 | 3.2 | 3.2 | 0.00 | 0.00 | 0.00 | 71 | 1022.3 |
| 20260507100058 | 7 | 0 | 1.6 | 3.2 | 0.00 | 0.00 | 0.00 | 71 | 1022.2 |
| 20260507095556 | 7 | 68 | 4.8 | 6.4 | 0.00 | 0.00 | 0.00 | 71 | 1022.3 |
| 20260507095052 | 7 | 23 | 4.8 | 4.8 | 0.00 | 0.00 | 0.00 | 71 | 1021.8 |
| 20260507094548 | 7 | 23 | 4.8 | 4.8 | 0.00 | 0.00 | 0.00 | 71 | 1021.8 |
| 20260507094046 | 7 | 19 | 4.8 | 4.8 | 0.00 | 0.00 | 0.00 | 71 | 1022.0 |
| 20260507093543 | 7 | 50 | 6.4 | 8.0 | 0.00 | 0.00 | 0.00 | 71 | 1022.0 |
| 20260507093042 | 7 | 32 | 4.8 | 6.4 | 0.00 | 0.00 | 0.00 | 71 | 1021.9 |
| 20260507092537 | 7 | 29 | 3.2 | 3.2 | 0.00 | 0.00 | 0.00 | 71 | 1021.9 |
| 20260507092034 | 7 | 68 | 3.2 | 4.8 | 0.00 | 0.00 | 0.00 | 71 | 1021.9 |
| 20260507091532 | 7 | 60 | 1.6 | 4.8 | 0.00 | 0.00 | 0.00 | 71 | 1022.0 |
| 20260507091028 | 7 | 26 | 0.0 | 1.6 | 0.00 | 0.00 | 0.00 | 71 | 1022.2 |
| 20260507090523 | 7 | 60 | 0.0 | 1.6 | 0.00 | 0.00 | 0.00 | 71 | 1022.3 |
| 20260507090020 | 7 | 324 | 1.6 | 3.2 | 0.00 | 0.00 | 0.00 | 71 | 1022.2 |
| 20260507085517 | 7 | 0 | 3.2 | 3.2 | 0.00 | 0.00 | 0.00 | 71 | 1022.2 |
| 20260507085014 | 7 | 53 | 3.2 | 3.2 | 0.00 | 0.00 | 0.00 | 71 | 1022.3 |
| 20260507084511 | 7 | 14 | 0.0 | 3.2 | 0.00 | 0.00 | 0.00 | 71 | 1022.5 |
| 20260507084008 | 7 | 23 | 0.0 | 3.2 | 0.00 | 0.00 | 0.00 | 71 | 1021.9 |
| 20260507083504 | 7 | 341 | 4.8 | 4.8 | 0.00 | 0.00 | 0.00 | 71 | 1022.2 |
| 20260507083001 | 7 | 30 | 3.2 | 4.8 | 0.00 | 0.00 | 0.00 | 71 | 1021.9 |
| 20260507082457 | 7 | 30 | 3.2 | 4.8 | 0.00 | 0.00 | 0.00 | 71 | 1022.3 |
| 20260507081953 | 7 | 30 | 4.8 | 4.8 | 0.00 | 0.00 | 0.00 | 71 | 1022.2 |
| 20260507081449 | 7 | 30 | 4.8 | 4.8 | 0.00 | 0.00 | 0.00 | 71 | 1022.3 |
| 20260507080947 | 8 | 35 | 1.6 | 4.8 | 0.00 | 0.00 | 0.00 | 71 | 1022.2 |
| 20260507080443 | 8 | 35 | 1.6 | 4.8 | 0.00 | 0.00 | 0.00 | 71 | 1022.2 |
| 20260507075938 | 8 | 35 | 1.6 | 4.8 | 0.00 | 0.00 | 0.00 | 71 | 1022.0 |
| 20260507075435 | 8 | 35 | 1.6 | 4.8 | 0.00 | 0.00 | 0.00 | 71 | 1022.3 |
| 20260507074931 | 8 | 40 | 4.8 | 4.8 | 0.00 | 0.00 | 0.00 | 71 | 1022.4 |
| 20260507074428 | 8 | 26 | 4.8 | 6.4 | 0.00 | 0.00 | 0.00 | 71 | 1022.2 |
| 20260507073926 | 7 | 29 | 0.0 | 6.4 | 0.00 | 0.00 | 0.00 | 71 | 1022.0 |
| 20260507073422 | 7 | 29 | 0.0 | 6.4 | 0.00 | 0.00 | 0.00 | 71 | 1022.2 |
| 20260507072919 | 8 | 21 | 3.2 | 3.2 | 0.00 | 0.00 | 0.00 | 71 | 1022.4 |
| 20260507072416 | 8 | 21 | 3.2 | 3.2 | 0.00 | 0.00 | 0.00 | 71 | 1022.0 |
| 20260507071914 | 8 | 71 | 3.2 | 4.8 | 0.00 | 0.00 | 0.00 | 71 | 1021.8 |
| 20260507071411 | 8 | 71 | 3.2 | 4.8 | 0.00 | 0.00 | 0.00 | 71 | 1021.8 |
| 20260507070907 | 8 | 71 | 3.2 | 4.8 | 0.00 | 0.00 | 0.00 | 71 | 1022.3 |
| 20260507070405 | 8 | 71 | 3.2 | 4.8 | 0.00 | 0.00 | 0.00 | 71 | 1022.2 |
| 20260507065901 | 8 | 341 | 8.0 | 11.3 | 0.00 | 0.00 | 0.00 | 71 | 1022.0 |
| 20260507065358 | 8 | 40 | 8.0 | 9.7 | 0.00 | 0.00 | 0.00 | 71 | 1022.3 |
| 20260507064855 | 8 | 54 | 9.7 | 9.7 | 0.00 | 0.00 | 0.00 | 71 | 1022.3 |
| 20260507064353 | 8 | 54 | 9.7 | 9.7 | 0.00 | 0.00 | 0.00 | 71 | 1022.3 |
| 20260507063851 | 8 | 34 | 4.8 | 6.4 | 0.00 | 0.00 | 0.00 | 71 | 1022.4 |
| 20260507063348 | 8 | 47 | 4.8 | 6.4 | 0.00 | 0.00 | 0.00 | 71 | 1021.9 |
| 20260507062845 | 8 | 63 | 4.8 | 4.8 | 0.00 | 0.00 | 0.00 | 71 | 1022.3 |
| 20260507062341 | 8 | 60 | 4.8 | 6.4 | 0.00 | 0.00 | 0.00 | 71 | 1022.4 |
| 20260507061839 | 8 | 9 | 4.8 | 6.4 | 0.00 | 0.00 | 0.00 | 71 | 1022.3 |
| 20260507061337 | 8 | 61 | 4.8 | 8.0 | 0.00 | 0.00 | 0.00 | 71 | 1022.2 |
| 20260507060835 | 8 | 13 | 4.8 | 8.0 | 0.00 | 0.00 | 0.00 | 71 | 1022.0 |
| 20260507060332 | 8 | 337 | 6.4 | 8.0 | 0.00 | 0.00 | 0.00 | 71 | 1022.2 |
| 20260507055828 | 8 | 37 | 11.3 | 11.3 | 0.00 | 0.00 | 0.00 | 71 | 1021.9 |
| 20260507055323 | 8 | 28 | 3.2 | 4.8 | 0.00 | 0.00 | 0.00 | 71 | 1022.0 |
| 20260507054820 | 8 | 28 | 3.2 | 4.8 | 0.00 | 0.00 | 0.00 | 71 | 1021.7 |
| 20260507054316 | 8 | 76 | 4.8 | 6.4 | 0.00 | 0.00 | 0.00 | 71 | 1021.7 |
| 20260507053814 | 8 | 29 | 0.0 | 3.2 | 0.00 | 0.00 | 0.00 | 71 | 1021.9 |
| 20260507053312 | 8 | 29 | 1.6 | 1.6 | 0.00 | 0.00 | 0.00 | 71 | 1022.0 |
| 20260507052811 | 8 | 3 | 4.8 | 4.8 | 0.00 | 0.00 | 0.00 | 71 | 1021.7 |
| 20260507052307 | 8 | 0 | 1.6 | 1.6 | 0.00 | 0.00 | 0.00 | 71 | 1021.8 |
| 20260507051805 | 9 | 7 | 0.0 | 0.0 | 0.00 | 0.00 | 0.00 | 71 | 1021.8 |
| 20260507051302 | 9 | 7 | 0.0 | 0.0 | 0.00 | 0.00 | 0.00 | 71 | 1021.5 |
| 20260507050758 | 9 | 7 | 0.0 | 0.0 | 0.00 | 0.00 | 0.00 | 71 | 1021.6 |
| 20260507050254 | 9 | 337 | 0.0 | 0.0 | 0.00 | 0.00 | 0.00 | 71 | 1021.7 |
| 20260507045751 | 10 | 341 | 3.2 | 3.2 | 0.00 | 0.03 | 0.03 | 72 | 1021.7 |
| 20260507045247 | 10 | 0 | 3.2 | 3.2 | 0.00 | 0.03 | 0.03 | 72 | 1021.6 |
| 20260507044746 | 10 | 0 | 3.2 | 3.2 | 0.00 | 0.03 | 0.03 | 72 | 1021.6 |
| 20260507044242 | 10 | 0 | 3.2 | 3.2 | 0.00 | 0.03 | 0.03 | 72 | 1021.4 |
| 20260507043738 | 10 | 0 | 3.2 | 3.2 | 0.00 | 0.03 | 0.03 | 72 | 1021.5 |
| 20260507043235 | 10 | 8 | 3.2 | 3.2 | 0.00 | 0.03 | 0.03 | 72 | 1021.3 |
| 20260507042731 | 10 | 8 | 3.2 | 3.2 | 0.00 | 0.03 | 0.03 | 72 | 1021.4 |
| 20260507042226 | 10 | 8 | 3.2 | 3.2 | 0.00 | 0.03 | 0.03 | 72 | 1021.5 |
| 20260507041724 | 10 | 8 | 3.2 | 3.2 | 0.00 | 0.03 | 0.03 | 72 | 1021.4 |
| 20260507041220 | 10 | 8 | 3.2 | 3.2 | 0.00 | 0.03 | 0.03 | 72 | 1021.4 |
| 20260507040717 | 10 | 8 | 3.2 | 3.2 | 0.00 | 0.03 | 0.03 | 72 | 1021.5 |
| 20260507040213 | 10 | 348 | 0.0 | 3.2 | 0.00 | 0.03 | 0.03 | 72 | 1021.5 |
| 20260507035709 | 10 | 348 | 0.0 | 3.2 | 0.00 | 0.03 | 0.03 | 72 | 1021.3 |
| 20260507035205 | 10 | 356 | 3.2 | 4.8 | 0.00 | 0.03 | 0.03 | 72 | 1021.1 |
| 20260507034702 | 10 | 356 | 3.2 | 4.8 | 0.00 | 0.03 | 0.03 | 72 | 1021.5 |
| 20260507034200 | 10 | 356 | 3.2 | 4.8 | 0.00 | 0.03 | 0.03 | 72 | 1021.4 |
| 20260507033658 | 10 | 356 | 3.2 | 4.8 | 0.00 | 0.03 | 0.03 | 72 | 1021.3 |
| 20260507033155 | 10 | 356 | 3.2 | 4.8 | 0.00 | 0.03 | 0.03 | 72 | 1021.3 |
| 20260507032652 | 10 | 10 | 3.2 | 3.2 | 0.00 | 0.03 | 0.03 | 72 | 1021.3 |
| 20260507032148 | 10 | 10 | 3.2 | 3.2 | 0.00 | 0.03 | 0.03 | 72 | 1021.3 |
| 20260507031645 | 10 | 348 | 0.0 | 3.2 | 0.00 | 0.03 | 0.03 | 72 | 1021.3 |
| 20260507031141 | 10 | 348 | 0.0 | 3.2 | 0.00 | 0.03 | 0.03 | 72 | 1021.5 |
| 20260507030638 | 10 | 353 | 1.6 | 3.2 | 0.00 | 0.03 | 0.03 | 72 | 1021.6 |
| 20260507030136 | 10 | 331 | 0.0 | 3.2 | 0.00 | 0.03 | 0.03 | 72 | 1021.4 |
| 20260507025633 | 10 | 306 | 0.0 | 1.6 | 0.00 | 0.03 | 0.03 | 72 | 1021.4 |
| 20260507025130 | 10 | 297 | 0.0 | 1.6 | 0.00 | 0.03 | 0.03 | 72 | 1021.5 |
| 20260507024628 | 11 | 287 | 3.2 | 3.2 | 0.00 | 0.03 | 0.03 | 72 | 1021.1 |
| 20260507024125 | 11 | 287 | 3.2 | 3.2 | 0.00 | 0.03 | 0.03 | 72 | 1021.5 |
| 20260507023620 | 11 | 287 | 3.2 | 3.2 | 0.00 | 0.03 | 0.03 | 72 | 1021.4 |
| 20260507023118 | 11 | 287 | 3.2 | 3.2 | 0.00 | 0.03 | 0.03 | 72 | 1021.4 |
| 20260507022615 | 11 | 287 | 3.2 | 3.2 | 0.00 | 0.03 | 0.03 | 72 | 1021.2 |
| 20260507022110 | 11 | 287 | 3.2 | 3.2 | 0.00 | 0.03 | 0.03 | 72 | 1021.3 |
| 20260507021607 | 11 | 0 | 1.6 | 3.2 | 0.00 | 0.03 | 0.03 | 72 | 1021.3 |
| 20260507021103 | 11 | 0 | 1.6 | 3.2 | 0.00 | 0.03 | 0.03 | 72 | 1021.0 |
| 20260507020602 | 11 | 0 | 1.6 | 3.2 | 0.00 | 0.03 | 0.03 | 72 | 1021.0 |
| 20260507020057 | 12 | 346 | 1.6 | 1.6 | 0.00 | 0.03 | 0.03 | 72 | 1020.8 |
| 20260507015556 | 12 | 346 | 1.6 | 1.6 | 0.00 | 0.03 | 0.03 | 72 | 1020.3 |
| 20260507015053 | 12 | 346 | 1.6 | 1.6 | 0.00 | 0.03 | 0.03 | 72 | 1020.7 |
| 20260507014549 | 12 | 239 | 3.2 | 3.2 | 0.00 | 0.03 | 0.03 | 72 | 1020.7 |
| 20260507014045 | 12 | 239 | 3.2 | 3.2 | 0.00 | 0.03 | 0.03 | 72 | 1021.0 |
| 20260507013542 | -17 | 0.0 | 0.0 | 0.00 | 0.03 | 0.03 | 1021.0 | ||
| 20260507013039 | -17 | 0.0 | 0.0 | 0.00 | 0.03 | 0.03 | 1021.0 | ||
| 20260507012536 | -17 | 0.0 | 0.0 | 0.00 | 0.03 | 0.03 | 1021.0 | ||
| 20260507012032 | -17 | 0.0 | 0.0 | 0.00 | 0.03 | 0.03 | 1020.8 | ||
| 20260507011530 | -17 | 0.0 | 0.0 | 0.00 | 0.03 | 0.03 | 1020.8 | ||
| 20260507011026 | -17 | 0.0 | 0.0 | 0.00 | 0.03 | 0.03 | 1020.5 | ||
| 20260507010520 | -17 | 0.0 | 0.0 | 0.00 | 0.03 | 0.03 | 1020.5 | ||
| 20260507010017 | -17 | 0.0 | 0.0 | 0.00 | 0.03 | 0.03 | 1020.4 | ||
| 20260507005515 | -17 | 0.0 | 0.0 | 0.00 | 0.03 | 0.03 | 1020.2 | ||
| 20260507005011 | -17 | 0.0 | 0.0 | 0.00 | 0.03 | 0.03 | 1020.3 | ||
| 20260507004508 | -17 | 0.0 | 0.0 | 0.00 | 0.03 | 0.03 | 1020.5 | ||
| 20260507004006 | 14 | 25 | 11.3 | 12.9 | 0.00 | 0.03 | 0.03 | 72 | 1020.4 |
| 20260507003501 | 14 | 25 | 11.3 | 12.9 | 0.00 | 0.03 | 0.03 | 72 | 1020.6 |
| 20260507002955 | 14 | 25 | 11.3 | 12.9 | 0.00 | 0.03 | 0.03 | 72 | 1020.6 |
| 20260507002453 | 14 | 25 | 11.3 | 12.9 | 0.00 | 0.03 | 0.03 | 72 | 1021.1 |
| 20260507001949 | 14 | 25 | 11.3 | 12.9 | 0.00 | 0.03 | 0.03 | 72 | 1020.7 |
| 20260507001446 | 14 | 25 | 11.3 | 12.9 | 0.00 | 0.03 | 0.03 | 72 | 1020.6 |
| 20260507000944 | 14 | 25 | 11.3 | 12.9 | 0.00 | 0.03 | 0.03 | 72 | 1020.6 |
| 20260507000439 | 14 | 25 | 11.3 | 12.9 | 0.00 | 0.03 | 0.03 | 72 | 1020.2 |
| 20260506235934 | 14 | 25 | 11.3 | 12.9 | 0.00 | 0.03 | 0.03 | 72 | 1020.1 |
| 20260506235432 | 14 | 25 | 11.3 | 12.9 | 0.00 | 0.03 | 0.03 | 72 | 1019.8 |
| 20260506234927 | 14 | 25 | 11.3 | 12.9 | 0.00 | 0.03 | 0.03 | 72 | 1019.8 |
| 20260506234426 | 14 | 25 | 11.3 | 12.9 | 0.00 | 0.03 | 0.03 | 72 | 1019.6 |
| 20260506233923 | 15 | 11 | 4.8 | 6.4 | 0.00 | 0.03 | 0.03 | 72 | 1019.7 |
| 20260506233419 | 15 | 11 | 4.8 | 6.4 | 0.00 | 0.03 | 0.03 | 72 | 1019.7 |
| 20260506232916 | 15 | 11 | 4.8 | 6.4 | 0.00 | 0.03 | 0.03 | 72 | 1019.4 |
| 20260506232412 | 14 | 46 | 6.4 | 9.7 | 0.00 | 0.03 | 0.03 | 72 | 1019.7 |
| 20260506231908 | 14 | 23 | 6.4 | 11.3 | 0.00 | 0.03 | 0.03 | 72 | 1019.9 |
| 20260506231406 | 15 | 12 | 8.0 | 8.0 | 0.00 | 0.03 | 0.03 | 73 | 1019.6 |
| 20260506230903 | 14 | 5 | 12.9 | 16.1 | 0.00 | 0.03 | 0.03 | 72 | 1019.6 |
| 20260506230400 | 14 | 25 | 12.9 | 16.1 | 0.00 | 0.03 | 0.03 | 72 | 1019.4 |
| 20260506225856 | 15 | 23 | 14.5 | 14.5 | 0.00 | 0.03 | 0.03 | 72 | 1019.5 |
| 20260506225353 | 15 | 61 | 12.9 | 14.5 | 0.00 | 0.03 | 0.03 | 72 | 1019.3 |
| 20260506224850 | 15 | 12 | 1.6 | 19.3 | 0.00 | 0.03 | 0.03 | 73 | 1018.9 |
| 20260506224348 | 15 | 20 | 4.8 | 11.3 | 0.00 | 0.03 | 0.03 | 72 | 1018.8 |
| 20260506223844 | 15 | 345 | 8.0 | 11.3 | 0.00 | 0.03 | 0.03 | 72 | 1019.1 |
| 20260506223339 | 15 | 57 | 3.2 | 14.5 | 0.00 | 0.03 | 0.03 | 73 | 1019.3 |
| 20260506222836 | 15 | 96 | 3.2 | 19.3 | 0.00 | 0.03 | 0.03 | 73 | 1019.1 |
| 20260506222331 | 15 | 7 | 3.2 | 16.1 | 0.00 | 0.03 | 0.03 | 73 | 1019.1 |
| 20260506221830 | 15 | 48 | 8.0 | 8.0 | 0.00 | 0.03 | 0.03 | 73 | 1019.1 |
| 20260506221327 | 15 | 23 | 12.9 | 20.9 | 0.00 | 0.03 | 0.03 | 73 | 1019.1 |
| 20260506220825 | 15 | 67 | 6.4 | 17.7 | 0.00 | 0.03 | 0.03 | 73 | 1019.2 |
| 20260506220320 | 15 | 95 | 0.0 | 3.2 | 0.00 | 0.03 | 0.03 | 73 | 1018.8 |
| 20260506215817 | 15 | 27 | 9.7 | 11.3 | 0.00 | 0.03 | 0.03 | 73 | 1018.7 |
| 20260506215312 | 15 | 327 | 6.4 | 8.0 | 0.00 | 0.03 | 0.03 | 73 | 1019.2 |
| 20260506214808 | 15 | 22 | 4.8 | 19.3 | 0.00 | 0.03 | 0.03 | 73 | 1019.2 |
| 20260506214305 | 15 | 55 | 6.4 | 8.0 | 0.00 | 0.03 | 0.03 | 73 | 1019.5 |
| 20260506213804 | 15 | 25 | 4.8 | 14.5 | 0.00 | 0.03 | 0.03 | 73 | 1019.6 |
| 20260506213300 | 15 | 165 | 1.6 | 6.4 | 0.00 | 0.03 | 0.03 | 73 | 1019.6 |
| 20260506212758 | 15 | 12 | 4.8 | 9.7 | 0.00 | 0.03 | 0.03 | 73 | 1019.4 |
| 20260506212253 | 15 | 26 | 4.8 | 6.4 | 0.00 | 0.03 | 0.03 | 73 | 1019.4 |
| 20260506211749 | 15 | 69 | 11.3 | 11.3 | 0.00 | 0.03 | 0.03 | 73 | 1019.7 |
| 20260506211245 | 15 | 70 | 0.0 | 8.0 | 0.00 | 0.03 | 0.03 | 73 | 1019.7 |
| 20260506210742 | 15 | 347 | 4.8 | 8.0 | 0.00 | 0.03 | 0.03 | 73 | 1019.9 |
| 20260506210239 | 15 | 16 | 3.2 | 12.9 | 0.00 | 0.03 | 0.03 | 73 | 1020.0 |
| 20260506205736 | 15 | 54 | 1.6 | 6.4 | 0.00 | 0.03 | 0.03 | 73 | 1020.2 |
| 20260506205232 | 15 | 346 | 4.8 | 9.7 | 0.00 | 0.03 | 0.03 | 72 | 1020.3 |
| 20260506204729 | 15 | 90 | 8.0 | 17.7 | 0.00 | 0.03 | 0.03 | 73 | 1020.3 |
| 20260506204226 | 15 | 354 | 6.4 | 9.7 | 0.00 | 0.03 | 0.03 | 72 | 1020.2 |
| 20260506203724 | 15 | 37 | 4.8 | 8.0 | 0.00 | 0.03 | 0.03 | 72 | 1020.3 |
| 20260506203215 | 15 | 270 | 8.0 | 9.7 | 0.00 | 0.03 | 0.03 | 73 | 1020.8 |
| 20260506202713 | 15 | 17 | 6.4 | 8.0 | 0.00 | 0.03 | 0.03 | 72 | 1020.7 |
| 20260506202209 | 15 | 324 | 4.8 | 9.7 | 0.00 | 0.03 | 0.03 | 72 | 1020.5 |
| 20260506201706 | 15 | 295 | 11.3 | 11.3 | 0.00 | 0.03 | 0.03 | 73 | 1020.6 |
| 20260506201203 | 15 | 36 | 3.2 | 4.8 | 0.00 | 0.03 | 0.03 | 73 | 1020.8 |
| 20260506200659 | 14 | 90 | 9.7 | 12.9 | 0.00 | 0.03 | 0.03 | 72 | 1020.6 |
| 20260506200156 | 15 | 115 | 3.2 | 3.2 | 0.00 | 0.03 | 0.03 | 72 | 1020.8 |
| 20260506195653 | 14 | 31 | 9.7 | 17.7 | 0.00 | 0.03 | 0.03 | 72 | 1020.9 |
| 20260506195149 | 15 | 320 | 8.0 | 8.0 | 0.00 | 0.03 | 0.03 | 73 | 1020.9 |
| 20260506194647 | 15 | 23 | 4.8 | 14.5 | 0.00 | 0.03 | 0.03 | 73 | 1020.7 |
| 20260506194143 | 14 | 19 | 6.4 | 16.1 | 0.00 | 0.03 | 0.03 | 72 | 1020.5 |
| 20260506193641 | 15 | 63 | 4.8 | 9.7 | 0.00 | 0.03 | 0.03 | 73 | 1020.5 |
| 20260506193138 | 15 | 25 | 9.7 | 11.3 | 0.00 | 0.03 | 0.03 | 73 | 1020.6 |
| 20260506192634 | 15 | 77 | 11.3 | 14.5 | 0.00 | 0.03 | 0.03 | 72 | 1020.8 |
| 20260506192130 | 15 | 125 | 3.2 | 6.4 | 0.00 | 0.03 | 0.03 | 73 | 1020.9 |
| 20260506191627 | 15 | 308 | 6.4 | 6.4 | 0.00 | 0.03 | 0.03 | 73 | 1021.0 |
| 20260506191123 | 15 | 34 | 3.2 | 12.9 | 0.00 | 0.03 | 0.03 | 73 | 1020.8 |
| 20260506190621 | 15 | 8 | 8.0 | 9.7 | 0.00 | 0.03 | 0.03 | 73 | 1020.9 |
| 20260506190118 | 15 | 289 | 0.0 | 14.5 | 0.00 | 0.03 | 0.03 | 73 | 1020.7 |
| 20260506185615 | 15 | 9 | 12.9 | 20.9 | 0.00 | 0.03 | 0.03 | 72 | 1020.8 |
| 20260506185111 | 14 | 81 | 3.2 | 8.0 | 0.00 | 0.03 | 0.03 | 72 | 1020.9 |
| 20260506184609 | 14 | 37 | 9.7 | 11.3 | 0.00 | 0.03 | 0.03 | 72 | 1021.0 |
| 20260506184106 | 14 | 90 | 6.4 | 9.7 | 0.00 | 0.03 | 0.03 | 72 | 1021.0 |
| 20260506183602 | 14 | 63 | 6.4 | 6.4 | 0.00 | 0.03 | 0.03 | 72 | 1021.1 |